Weather History for KHMN - June, 2013

Change the Weather History Date:

Wednesday, June 12, 2013

  Actual Average Record
Temperature  
Mean Temperature 89 °F -  
Max Temperature 104 °F 89 °F 104 °F (2006)
Min Temperature 73 °F 59 °F 53 °F (2003)
Cooling Degree Days 24    
Growing Degree Days 39 (Base 50)    
Moisture  
Dew Point 35 °F    
Average Humidity 15    
Maximum Humidity 29    
Minimum Humidity 7    
Precipitation  
Precipitation 0.00 in - - ()
Sea Level Pressure  
Sea Level Pressure 29.96 in    
Wind  
Wind Speed 11 mph (SE)    
Max Wind Speed 28 mph    
Max Gust Speed 46 mph    
Visibility 8 miles    
Events Thunderstorm    
Averages and records for this station are not official NWS values.
T = Trace of Precipitation, MM = Missing Value Source: NWS Daily Summary

Daily Weather History Graph

Daily Weather History Graph

Search for Another Location

Airport or City:

Trip Planner

Search our weather history database for the weather conditions in past years. The results will help you decide how hot, cold, wet, or windy it might be!

Date:

Astronomy

Jun. 12, 2013 Rise Set
Actual Time 5:55 AM MDT 8:13 PM MDT
Civil Twilight 5:27 AM MDT 8:41 PM MDT
Nautical Twilight 4:52 AM MDT 9:16 PM MDT
Astronomical Twilight 4:14 AM MDT 9:54 PM MDT
Moon 9:28 AM MDT (6/12) 11:01 PM MDT (6/12)
Length of Visible Light 15h 14m
Length of Day
14h 17m
Waxing Crescent, 14% of the Moon is Illuminated
Jun 12
Waxing Crescent
Jun 16
First Quarter
Jun 23
Full
Jun 29
Last Quarter
Jul 8
New

Hourly Weather History & Observations

Time (MDT) Temp. Dew Point Humidity Pressure Visibility Wind Dir Wind Speed Gust Speed Precip Events Conditions
12:55 AM 87.8 °F 32.0 °F 14% 30.00 in 7.0 mi East 13.8 mph - N/A   Partly Cloudy
1:55 AM 80.6 °F 32.0 °F 17% 29.99 in 7.0 mi Variable 3.5 mph - N/A   Clear
2:55 AM 80.6 °F 37.4 °F 21% 29.99 in 7.0 mi South 12.7 mph - N/A   Clear
3:55 AM 78.8 °F 39.2 °F 24% 30.00 in 7.0 mi South 9.2 mph - N/A   Clear
4:55 AM 78.8 °F 39.2 °F 24% 30.00 in 7.0 mi SSE 8.1 mph - N/A   Clear
5:55 AM 73.4 °F 39.2 °F 29% 30.02 in 7.0 mi WNW 10.4 mph - N/A   Partly Cloudy
6:55 AM 77.0 °F 39.2 °F 26% 30.03 in 7.0 mi NNW 13.8 mph - N/A   Partly Cloudy
7:51 AM 82.4 °F 37.4 °F 20% 30.04 in 7.0 mi NNW 13.8 mph - N/A   Partly Cloudy
8:55 AM 86.0 °F 42.8 °F 22% 30.08 in 7.0 mi WNW 5.8 mph - N/A   Partly Cloudy
9:55 AM 87.8 °F 42.8 °F 21% 30.07 in 7.0 mi West 5.8 mph - N/A   Partly Cloudy
10:55 AM 89.6 °F 44.6 °F 21% 30.07 in 7.0 mi West 4.6 mph - N/A   Partly Cloudy
11:55 AM 95.0 °F 37.4 °F 13% 29.74 in 7.0 mi Variable 3.5 mph - N/A   Partly Cloudy
12:55 PM 96.8 °F 37.4 °F 13% 29.72 in 7.0 mi SE 6.9 mph - N/A   Partly Cloudy
1:55 PM 98.6 °F 37.4 °F 12% 29.99 in 10.0 mi Variable 6.9 mph - N/A   Partly Cloudy
1:58 PM 97.9 °F 38.1 °F 13% 29.99 in 10.0 mi SSW 8.1 mph - N/A   Partly Cloudy
2:58 PM 100.8 °F 32.9 °F 9% 29.96 in 10.0 mi South 8.1 mph - N/A   Clear
3:55 PM 105.8 °F 33.8 °F 8% 29.94 in 10.0 mi Variable 5.8 mph - N/A   Scattered Clouds
4:50 PM 102.2 °F 32.0 °F 9% 29.91 in 9.0 mi ENE 26.5 mph 32.2 mph N/A Thunderstorm Clear
4:58 PM 100.9 °F 35.6 °F 10% 29.92 in 9.0 mi East 18.4 mph 32.2 mph N/A Thunderstorm Clear
5:32 PM 98.6 °F 26.6 °F 8% 29.92 in 2.5 mi NNE 27.6 mph 46.0 mph N/A   Haze
5:42 PM 98.6 °F 24.8 °F 7% 29.93 in 7.0 mi NE 20.7 mph 39.1 mph N/A   Clear
5:55 PM 98.6 °F 24.8 °F 7% 29.94 in 10.0 mi East 15.0 mph - N/A   Clear
5:57 PM 98.6 °F 24.8 °F 7% 29.94 in 10.0 mi ESE 13.8 mph - N/A   Clear
5:58 PM 98.4 °F 25.0 °F 7% 29.95 in 10.0 mi SE 13.8 mph - N/A   Clear
6:31 PM 96.8 °F 23.0 °F 7% 29.92 in 10.0 mi ESE 12.7 mph 25.3 mph N/A   Clear
6:50 PM 96.8 °F 24.8 °F 8% 29.92 in 10.0 mi SSE 13.8 mph 23.0 mph N/A   Clear
6:58 PM 97.5 °F 24.3 °F 7% 29.92 in 10.0 mi SE 6.9 mph - N/A   Clear
7:58 PM 94.8 °F 28.8 °F 10% 29.94 in 10.0 mi South 10.4 mph - N/A   Clear
8:58 PM 88.3 °F 38.8 °F 17% 29.96 in 10.0 mi SE 12.7 mph - N/A   Clear
9:58 PM 86.0 °F 42.3 °F 21% 29.98 in 10.0 mi SSE 12.7 mph - N/A   Clear
10:58 PM 84.4 °F 43.2 °F 23% 30.00 in 10.0 mi South 9.2 mph - N/A   Clear
11:58 PM 81.3 °F 43.5 °F 26% 30.02 in 10.0 mi SSW 16.1 mph - N/A   Clear